Probability
3 3 1 0 0 0 0 0 0 0 0 0 0 0 0 0 0 0 0 0 0 0 0 0 0 0 0 0 0 0 0 0 0 0 0 0 0 0 0 0 0 0 0
3 3 2 0 0 0 0 0 0 0 0 0 0 0 0 0 0 0 0 0 0 0 0 0 0 0 0 0 0 0 0 0 0 0 0 0 0 0 0 0 0 0 0
4 3 1 0 0 0 0 0 0 0 0 0 0 0 0 0 0 0 0 0 0 0 0 0 0 0 0 0 0 0 0 0 0 0 0 0 0 0 0 0 0 0 0
5 4 2 0 0 0 0 0 0 0 0 0 0 0 0 0 0 0 0 0 0 0 0 0 0 0 0 0 0 0 0 0 0 0 0 0 0 0 0 0 0 0 0
4 5 4 2 0 0 0 0 0 0 0 0 0 0 0 0 0 0 0 0 0 0 0 0 0 0 0 0 0 0 0 0 0 0 0 0 0 0 0 0 0 0 0
4 5 4 2 0 0 0 0 0 0 0 0 0 0 0 0 0 0 0 0 0 0 0 0 0 0 0 0 0 0 0 0 0 0 0 0 0 0 0 0 0 0 0
2 3 2 1 0 0 0 0 0 0 0 0 0 0 0 0 0 0 0 0 0 0 0 0 0 0 0 0 0 0 0 0 0 0 0 0 0 0 0 0 0 0 0
1 2 1 0 0 0 0 0 0 0 0 0 0 0 0 0 0 0 0 0 0 0 0 0 0 0 0 0 0 0 0 0 0 0 0 0 0 0 0 0 0 0 0
0 1 1 0 0 0 0 0 0 0 0 0 0 0 0 0 0 0 0 0 0 0 0 0 0 0 0 0 0 0 0 0 0 0 0 0 0 0 0 0 0 0 0
0 0 0 0 0 0 0 0 0 0 0 0 0 0 0 0 0 0 0 0 0 0 0 0 0 0 0 0 0 0 0 0 0 0 0 0 0 0 0 0 0 0 0
0 0 0 0 0 0 0 0 0 0 0 0 0 0 0 0 0 0 0 0 0 0 0 0 0 0 0 0 0 0 0 0 0 0 0 0 0 0 0 0 0 0 0
0 0 0 0 0 0 0 0 0 0 0 0 0 0 0 0 0 0 0 0 0 0 0 0 0 0 0 0 0 0 0 0 0 0 0 0 0 0 0 0 0 0 0
0 0 0 0 0 0 0 0 0 0 0 0 0 0 0 0 0 0 0 0 0 0 0 0 0 0 0 0 0 0 0 0 0 0 0 0 0 0 0 0 0 0 0
0 0 0 0 0 0 0 0 0 0 0 0 0 0 0 0 0 0 0 0 0 0 0 0 0 0 0 0 0 0 0 0 0 0 0 0 0 0 0 0 0 0 0
0 0 0 0 0 0 0 0 0 0 0 0 0 0 0 0 0 0 0 0 0 0 0 0 0 0 0 0 0 0 0 0 0 0 0 0 0 0 0 0 0 0 0
0 0 0 0 0 0 0 0 0 0 0 0 0 0 0 0 0 0 0 0 0 0 0 0 0 0 0 0 0 0 0 0 0 0 0 0 0 0 0 0 0 0 0
0 0 0 0 0 0 0 0 0 0 0 0 0 0 0 0 0 0 0 0 0 0 0 0 0 0 0 0 0 0 0 0 0 0 0 0 0 0 0 0 0 0 0
0 0 0 0 0 0 0 0 0 0 0 0 0 0 0 0 0 0 0 0 0 0 0 0 0 0 0 0 0 0 0 0 0 0 0 0 0 0 0 0 0 0 0
0 0 0 0 0 0 0 0 0 0 0 0 0 0 0 0 0 0 0 0 0 0 0 0 0 0 0 0 0 0 0 0 0 0 0 0 0 0 0 0 0 0 0
0 0 0 0 0 0 0 0 0 0 0 0 0 0 0 0 0 0 0 0 0 0 0 0 0 0 0 0 0 0 0 0 0 0 0 0 0 0 0 0 0 0 0
0 0 0 0 0 0 0 0 0 0 0 0 0 0 0 0 0 0 0 0 0 0 0 0 0 0 0 0 0 0 0 0 0 0 0 0 0 0 0 0 0 0 0
0 0 0 0 0 0 0 0 0 0 0 0 0 0 0 0 0 0 0 0 0 0 0 0 0 0 0 0 0 0 0 0 0 0 0 0 0 0 0 0 0 0 0
0 0 0 0 0 0 0 0 0 0 0 0 0 0 0 0 0 0 0 0 0 0 0 0 0 0 0 0 0 0 0 0 0 0 0 0 0 0 0 0 0 0 0
0 0 0 0 0 0 0 0 0 0 0 0 0 0 0 0 0 0 0 0 0 0 0 0 0 0 0 0 0 0 0 0 0 0 0 0 0 0 0 0 0 0 0
0 0 0 0 0 0 0 0 0 0 0 0 0 0 0 0 0 0 0 0 0 0 0 0 0 0 0 0 0 0 0 0 0 0 0 0 0 0 0 0 0 0 0
0 0 0 0 0 0 0 0 0 0 0 0 0 0 0 0 0 0 0 0 0 0 0 0 0 0 0 0 0 0 0 0 0 0 0 0 0 0 0 0 0 0 0
Wind_Speed
4 4 4 4 4 4 3 4 4 3 4 4 5 5 5 5 5 5 5 5 6 6 5 6 7 6 5 5 5 4 3 3 3 3 2 2 5 6 6 5 5 5 4
4 4 4 4 3 4 4 3 4 4 4 4 4 5 5 5 5 5 5 5 6 6 6 6 6 5 6 5 5 5 4 4 3 3 2 2 4 5 6 6 5 6 4
3 3 2 3 3 3 4 4 4 4 3 3 4 5 5 5 5 5 5 5 5 5 5 6 5 5 6 5 5 5 5 5 3 3 2 2 1 3 3 3 4 3 5
3 3 1 2 2 3 3 3 4 4 4 4 4 5 5 5 5 5 5 5 4 4 4 5 5 6 6 6 5 5 5 5 4 3 2 2 2 2 3 3 3 3 4
2 2 2 2 1 2 3 3 2 3 3 4 4 4 4 4 5 5 5 5 4 4 3 4 4 6 8 6 5 5 5 4 4 3 3 2 3 3 4 4 4 3 3
3 2 2 1 1 2 3 2 2 2 2 3 4 5 5 5 8 10 7 5 5 5 4 3 3 5 8 10 10 10 9 6 6 4 4 4 4 4 3 4 4 3 3
6 4 3 2 0 2 2 1 2 2 2 2 3 4 5 6 9 11 11 6 5 5 5 4 4 4 6 4 7 9 10 11 10 6 5 5 5 5 5 5 5 5 5
7 5 4 3 2 2 1 0 1 1 2 2 3 4 4 6 10 11 11 6 4 5 5 5 5 4 5 5 4 4 5 6 7 6 6 6 5 5 6 6 5 4 2
6 5 4 4 4 4 3 2 2 1 1 1 2 3 4 5 9 10 10 4 3 4 4 4 5 5 8 8 5 5 4 5 7 10 10 9 9 9 7 4 4 3 4
4 4 4 4 4 4 4 3 2 1 1 1 1 2 3 4 7 10 10 4 3 2 2 3 6 7 7 7 6 5 5 5 4 4 6 8 7 7 10 8 6 5 3
3 4 4 4 4 4 3 3 3 2 2 1 1 1 1 3 5 8 9 4 4 3 2 2 2 5 6 7 6 5 6 4 3 3 3 3 3 3 4 5 5 5 5
3 4 4 5 4 4 5 5 5 4 4 3 2 2 2 1 1 4 7 6 5 3 3 2 2 3 4 4 3 3 4 2 1 1 2 2 3 3 3 3 4 4 4
4 4 4 4 5 5 5 6 5 5 4 3 3 3 2 2 2 2 4 6 5 3 2 3 3 4 3 1 1 2 1 1 1 1 2 2 2 2 2 2 2 2 1
4 3 2 4 4 5 5 5 4 5 4 4 4 3 2 3 3 2 2 3 4 3 2 3 4 4 2 1 0 0 0 1 1 1 1 1 0 1 1 1 1 1 1
3 2 2 2 3 4 4 5 4 4 4 3 2 2 2 2 2 1 2 2 2 3 3 2 1 1 1 1 1 1 1 1 1 0 0 1 1 1 1 1 1 2 2
2 1 0 1 1 2 2 3 6 6 8 9 7 4 3 3 4 5 5 4 3 5 4 2 1 1 1 1 1 1 1 1 1 1 1 1 1 0 0 1 1 1 2
3 2 1 1 1 1 1 1 1 3 6 9 10 9 8 7 7 6 6 8 7 6 4 2 2 1 1 1 1 1 1 1 1 1 1 1 1 0 0 1 1 1 2
3 2 2 1 1 1 1 1 1 1 2 3 5 8 8 8 7 7 6 6 6 5 3 3 3 2 2 2 2 2 2 2 2 2 2 2 1 1 1 1 1 2 2
3 2 1 1 1 1 1 2 2 2 2 2 3 4 7 6 8 9 7 5 4 4 3 3 3 3 3 3 3 3 3 2 2 2 2 2 2 1 1 2 2 3 3
3 3 3 1 1 1 2 2 2 2 2 2 2 3 3 4 4 5 4 4 4 3 3 3 3 4 3 3 3 3 3 3 3 3 2 2 2 1 2 2 2 2 2
3 2 2 2 1 2 2 3 3 3 2 2 1 2 3 3 3 4 4 4 3 3 3 4 4 4 4 3 3 3 4 3 3 3 3 3 2 2 2 2 3 3 3
3 2 2 2 2 2 2 3 3 3 3 2 1 2 5 3 3 3 3 4 4 4 4 4 4 4 3 3 3 3 3 3 3 3 3 3 3 3 3 3 3 3 3
4 3 2 2 2 3 3 3 3 3 3 2 2 2 2 2 3 3 3 3 4 4 4 4 4 4 4 4 4 3 3 3 3 4 4 4 3 3 3 3 3 3 3
4 4 4 3 2 3 3 3 3 3 3 2 2 2 2 2 3 3 3 3 4 4 4 4 4 5 5 4 3 3 3 3 4 3 4 4 4 3 3 3 3 3 3
4 4 4 3 3 3 3 3 3 3 3 3 2 2 3 3 3 3 3 3 4 4 5 5 4 4 5 6 5 4 6 7 5 4 3 3 3 4 3 3 3 3 3
4 4 3 3 3 3 3 3 3 3 3 3 3 3 3 3 3 3 3 3 4 4 4 4 5 5 6 5 6 8 8 8 7 5 2 2 3 3 3 3 4 3 3
Wind_Direction
187 178 163 168 169 167 172 189 187 180 176 176 178 177 178 179 176 179 186 185 195 201 204 205 209 195 191 187 180 172 177 182 215 241 224 191 172 176 172 177 186 189 196
197 178 171 167 162 169 181 186 176 179 187 186 174 173 179 179 177 182 189 191 196 201 202 200 205 197 192 189 187 184 180 182 193 216 221 186 185 183 170 176 186 191 195
191 174 177 169 174 193 198 195 186 184 188 182 167 174 183 181 182 188 186 189 196 199 194 194 196 192 198 195 192 188 186 188 179 190 216 203 178 151 148 179 183 186 200
180 154 175 235 226 228 213 203 198 187 183 190 187 186 184 182 181 180 178 179 182 188 188 190 192 195 198 192 191 188 184 181 177 183 198 200 194 160 151 166 181 196 203
153 153 188 228 266 271 257 229 215 200 194 193 190 190 184 182 189 179 175 178 178 182 188 194 199 206 207 199 194 186 182 182 181 187 196 190 186 170 193 183 190 179 210
108 129 156 134 261 269 259 248 222 217 208 193 195 192 195 204 197 186 178 177 178 186 198 209 216 220 223 218 214 201 193 190 194 194 196 202 207 203 183 178 169 165 226
62 53 46 48 349 275 268 250 243 226 208 201 200 195 208 219 204 193 189 173 178 190 198 203 219 221 218 218 226 221 213 213 206 194 202 207 205 203 185 187 190 196 211
50 43 36 34 3 342 23 25 262 231 202 203 206 206 207 220 212 198 187 173 179 195 201 204 213 230 216 205 209 219 223 225 221 218 216 216 213 203 194 198 205 216 230
44 35 27 28 27 23 17 350 312 290 249 226 209 205 206 222 214 198 174 165 184 207 215 213 211 224 231 207 193 214 236 248 241 232 228 227 222 216 200 184 184 192 226
29 26 24 33 41 30 12 357 344 339 306 266 235 218 210 216 215 201 177 165 182 207 229 232 222 218 224 201 194 206 231 247 246 248 240 239 231 231 216 204 197 198 207
20 33 31 30 39 31 15 1 355 359 8 6 352 323 247 224 220 206 183 168 181 189 201 220 232 217 216 210 198 203 229 240 239 239 240 233 220 220 219 211 205 201 205
40 43 38 30 30 29 24 17 15 19 29 21 20 10 5 349 223 203 185 171 163 167 184 193 203 184 186 186 188 220 241 238 222 229 232 232 225 222 214 206 205 207 213
61 55 49 46 37 30 31 24 20 19 25 21 27 29 18 17 26 82 152 157 148 146 163 172 163 145 136 148 205 215 202 168 192 220 241 246 239 219 171 153 143 140 131
80 71 62 60 49 38 33 29 30 22 18 19 21 24 28 31 27 34 87 113 125 118 110 107 101 93 83 58 37 43 107 184 182 214 241 266 326 107 124 137 145 145 159
99 86 67 70 77 63 51 35 29 29 19 21 12 13 33 32 354 16 126 127 146 151 127 92 80 84 64 35 37 30 38 48 53 39 72 72 74 98 124 133 144 158 188
119 109 95 100 101 106 96 63 38 39 37 42 41 43 38 51 57 65 78 90 116 139 119 100 99 111 141 142 113 55 50 61 62 70 65 68 82 104 144 154 168 195 226
149 161 165 161 155 162 159 134 67 20 29 36 37 44 52 56 61 64 69 73 78 98 89 87 85 81 75 77 85 86 49 22 52 57 47 28 26 26 276 248 242 243 252
150 153 157 189 202 188 174 161 139 99 39 13 16 32 40 45 51 61 75 75 61 56 69 76 74 69 67 65 64 61 50 40 40 40 36 28 22 19 354 305 278 263 266
151 158 151 142 136 126 118 113 114 108 86 42 14 11 19 32 44 52 62 70 76 67 61 59 61 63 57 54 50 47 49 46 39 36 28 16 8 6 339 312 299 290 278
165 174 151 124 108 111 110 113 113 107 90 71 42 14 7 40 46 40 45 58 67 68 64 61 55 55 52 48 47 49 50 45 36 33 21 10 0 355 330 316 309 298 283
161 167 144 110 114 129 129 129 126 117 108 90 40 19 57 72 66 61 58 52 55 58 61 63 58 50 43 41 44 47 48 38 26 11 358 346 340 333 320 308 303 297 294
154 158 153 151 141 128 126 127 125 122 123 113 60 42 66 74 72 68 63 57 54 54 57 66 61 49 40 39 38 38 34 22 7 353 340 332 330 325 319 314 310 306 301
148 155 154 146 138 134 124 125 129 130 132 131 116 86 77 83 82 80 77 70 63 58 52 55 60 51 43 42 39 35 25 1 338 328 326 327 327 322 318 314 315 318 316
145 151 152 148 138 139 143 146 147 146 144 142 134 121 108 104 99 93 88 80 73 65 59 57 60 59 51 38 26 16 359 338 324 316 316 314 315 316 318 319 319 322 322
142 150 154 155 155 157 155 154 154 154 154 152 142 130 120 112 106 101 96 92 88 78 69 59 49 42 35 28 14 357 343 340 335 321 306 309 319 327 333 336 340 343 341
148 153 155 154 158 161 159 161 161 159 158 153 143 136 132 125 119 114 107 100 92 83 75 60 49 41 24 10 358 351 348 346 347 348 333 324 340 355 357 356 357 359 356